Weather reports worldwide

Advertisment
Estaca de Bares, Spain (8004): temperature & dewpoint: 13.03.2019 09:00:00 - 19.03.2019 09:00:00 (CET)Estaca de Bares, Spain (8004): wind speed & gusts: 13.03.2019 09:00:00 - 19.03.2019 09:00:00 (CET)Estaca de Bares, Spain (8004): wind direction: 13.03.2019 09:00:00 - 19.03.2019 09:00:00 (CET)Estaca de Bares, Spain (8004): reduced air pressure: 13.03.2019 09:00:00 - 19.03.2019 09:00:00 (CET)Estaca de Bares, Spain (8004): visibility: 13.03.2019 09:00:00 - 19.03.2019 09:00:00 (CET)Estaca de Bares, Spain (8004): sunshine duration: 13.03.2019 09:00:00 - 19.03.2019 09:00:00 (CET)Estaca de Bares, Spain (8004): precipitation: 13.03.2019 09:00:00 - 19.03.2019 09:00:00 (CET)
Date & Time tt [°C] td [°C] ff [km/h] ff [kn] fx [km/h] fx [kn] dd ppp [hPa] vv [km] sd [min] rr [mm]
19.03.2019 09:00:00 10,8 5,1 15 8 34 18 NE 1030,1 20 15 0,0
19.03.2019 08:00:00 10,5 5,0 17 9 34 18 NE 1029,4 20 0 0,0
19.03.2019 07:00:00 10,3 5,1 15 8 35 19 NE 1029,1 20 0 -
19.03.2019 06:00:00 10,3 4,8 15 8 34 18 NE 1028,9 20 0 0,0
19.03.2019 05:00:00 10,5 5,5 16 9 32 17 NE 1029,0 20 0 0,0
19.03.2019 04:00:00 10,2 5,1 9 5 29 16 NE 1029,0 20 0 0,0
19.03.2019 03:00:00 10,1 4,8 12 7 29 16 NNE 1029,6 20 0 0,0
19.03.2019 02:00:00 10,0 4,6 13 7 30 16 NE 1029,9 20 0 0,0
19.03.2019 01:00:00 10,0 4,6 13 7 31 17 NNE 1030,1 20 0 -
19.03.2019 00:00:00 10,0 4,6 12 6 35 19 NNE 1030,2 20 0 0,0
18.03.2019 23:00:00 10,3 4,6 19 11 45 24 NNE 1030,5 20 0 0,0
18.03.2019 22:00:00 10,5 5,0 16 9 30 16 NNE 1030,6 20 0 0,0
18.03.2019 21:00:00 10,3 4,6 17 9 29 16 NNE 1030,3 20 0 0,0
18.03.2019 20:00:00 10,4 4,8 16 8 32 17 NNE 1030,1 20 0 0,0
18.03.2019 19:00:00 11,1 3,8 10 5 26 14 NNE 1030,0 20 56 -
18.03.2019 18:00:00 12,3 4,5 6 4 20 11 NNE 1029,4 20 58 0,0
18.03.2019 17:00:00 11,5 4,3 8 4 26 14 N 1029,2 20 43 0,0
18.03.2019 16:00:00 13,2 4,8 9 5 21 11 NNE 1029,4 20 60 0,0
18.03.2019 15:00:00 13,0 4,6 9 5 24 13 N 1029,5 20 60 0,0
18.03.2019 14:00:00 12,9 4,8 10 5 19 11 NE 1030,0 20 60 0,0
18.03.2019 13:00:00 13,0 5,6 8 5 21 11 NE 1030,2 20 60 -
18.03.2019 12:00:00 12,8 5,5 10 5 22 12 NE 1030,2 20 47 0,0
18.03.2019 11:00:00 12,3 5,9 7 4 13 7 E 1030,3 20 55 0,0
18.03.2019 10:00:00 10,3 5,1 6 4 22 12 E 1029,9 20 14 0,0
18.03.2019 09:00:00 9,8 4,6 11 6 29 16 ENE 1029,0 20 0 0,0
18.03.2019 08:00:00 9,6 4,6 16 9 34 18 NNE 1028,4 20 0 0,2
18.03.2019 07:00:00 9,8 3,9 11 6 29 15 NNE 1028,1 20 0 -
18.03.2019 06:00:00 9,7 3,9 16 8 29 16 NNE 1027,8 20 0 0,0
18.03.2019 05:00:00 9,7 4,1 17 9 34 18 NE 1027,5 20 0 0,0
18.03.2019 04:00:00 9,7 3,4 19 10 33 18 NNE 1027,8 20 0 0,0
18.03.2019 03:00:00 9,9 3,8 14 8 29 16 N 1027,5 20 0 0,0
18.03.2019 02:00:00 9,5 3,9 13 7 27 15 NNE 1027,5 20 0 0,0
18.03.2019 01:00:00 9,3 3,8 8 5 23 12 NE 1027,6 20 0 -
18.03.2019 00:00:00 9,9 3,6 11 6 30 16 NNE 1028,1 20 0 0,0
17.03.2019 23:00:00 9,9 2,5 21 11 39 21 NNE 1028,1 20 0 0,0
17.03.2019 22:00:00 9,9 3,8 22 12 41 22 N 1027,7 20 0 0,0
17.03.2019 21:00:00 9,7 3,0 13 7 32 17 NNW 1027,4 20 0 0,0
17.03.2019 20:00:00 9,8 0,6 18 10 32 17 NNE 1027,0 20 1 0,0
17.03.2019 19:00:00 10,4 2,3 13 7 25 13 N 1026,3 20 44 -
17.03.2019 18:00:00 12,3 1,9 8 5 23 13 NNW 1025,9 20 60 0,0
17.03.2019 17:00:00 13,3 2,3 8 5 24 13 NNW 1025,3 20 60 0,0
17.03.2019 16:00:00 11,9 0,9 10 5 25 13 NNW 1025,4 20 58 0,0
17.03.2019 15:00:00 13,2 1,9 6 4 26 14 NW 1025,0 20 60 0,0
17.03.2019 14:00:00 12,8 1,7 10 6 31 17 NNW 1025,0 20 60 0,0
17.03.2019 13:00:00 11,9 2,9 11 6 29 16 NNW 1024,7 20 58 -
17.03.2019 12:00:00 11,9 3,6 10 5 35 19 NW 1024,1 20 60 0,0
17.03.2019 11:00:00 10,8 3,0 16 9 35 19 NNW 1023,5 20 60 0,0
17.03.2019 10:00:00 10,5 3,8 18 10 44 24 NNW 1022,6 20 45 0,0
17.03.2019 09:00:00 9,7 3,6 17 9 39 21 NW 1021,7 20 1 0,0
17.03.2019 08:00:00 9,5 4,3 14 8 45 24 NW 1020,6 20 0 0,0
17.03.2019 07:00:00 8,9 5,9 19 10 41 22 WNW 1019,7 20 0 -
17.03.2019 06:00:00 8,7 7,0 25 14 53 29 WNW 1018,9 20 0 1,2
17.03.2019 05:00:00 9,0 7,1 32 18 53 29 WNW 1017,5 20 0 1,6
17.03.2019 04:00:00 9,7 7,4 40 21 67 36 WNW 1016,8 20 0 4,2
17.03.2019 03:00:00 10,6 7,1 63 34 82 44 W 1015,1 20 0 0,0
17.03.2019 02:00:00 11,5 5,9 69 37 88 47 W 1013,9 20 0 0,0
17.03.2019 01:00:00 11,4 5,8 57 31 80 43 W 1014,4 20 0 -
17.03.2019 00:00:00 11,0 4,8 55 30 89 48 WSW 1015,2 20 0 0,0
16.03.2019 23:00:00 10,9 5,0 59 32 80 43 WSW 1015,3 20 0 0,0
16.03.2019 22:00:00 10,8 5,1 62 33 84 45 W 1015,1 20 0 0,0
16.03.2019 21:00:00 10,6 5,3 66 36 78 42 W 1014,9 20 0 0,0
16.03.2019 20:00:00 10,9 6,1 58 31 74 40 W 1015,4 20 0 0,0
16.03.2019 19:00:00 11,1 6,4 55 30 69 37 W 1015,6 20 0 -
16.03.2019 18:00:00 11,4 6,7 57 31 79 42 W 1015,3 20 25 0,0
16.03.2019 17:00:00 12,9 7,6 57 31 69 37 W 1015,0 20 60 0,0
16.03.2019 16:00:00 13,0 7,7 53 29 83 45 W 1014,9 20 60 0,0
16.03.2019 15:00:00 12,4 7,3 72 39 85 46 W 1014,6 20 60 0,0
16.03.2019 14:00:00 12,3 7,6 57 31 68 37 WNW 1016,0 20 60 0,0
16.03.2019 13:00:00 13,0 7,4 49 26 56 30 W 1016,9 20 60 -
16.03.2019 12:00:00 13,0 7,4 31 17 35 19 W 1018,1 20 60 0,0
16.03.2019 11:00:00 12,2 7,6 23 12 29 16 W 1018,8 20 60 0,0
16.03.2019 10:00:00 10,1 7,3 19 10 26 14 W 1019,4 20 36 0,0
16.03.2019 09:00:00 8,7 6,5 15 8 20 11 W 1020,0 20 14 0,0
16.03.2019 08:00:00 7,2 4,8 11 6 14 8 W 1019,8 20 0 0,0
16.03.2019 07:00:00 8,0 5,3 4 2 11 6 W 1019,9 20 0 -
16.03.2019 06:00:00 7,9 5,1 9 5 14 8 SSE 1020,2 20 0 0,0
16.03.2019 05:00:00 7,9 5,0 10 5 21 12 SE 1020,5 20 0 0,0
16.03.2019 04:00:00 7,9 4,6 16 9 27 15 ESE 1021,1 20 0 0,0
16.03.2019 03:00:00 8,1 4,8 21 12 30 16 SE 1021,9 20 0 0,0
16.03.2019 02:00:00 8,4 5,0 14 7 21 11 SE 1023,0 20 0 0,0
16.03.2019 01:00:00 8,8 5,1 16 9 22 12 SE 1023,9 20 0 -
16.03.2019 00:00:00 8,7 5,0 13 7 18 10 SE 1024,6 20 0 0,0
15.03.2019 23:00:00 9,3 5,0 13 7 18 10 ESE 1025,1 20 0 0,0
15.03.2019 22:00:00 9,8 5,0 11 6 22 12 ESE 1025,4 20 0 0,0
15.03.2019 21:00:00 10,2 5,0 11 6 17 9 E 1025,6 20 0 0,0
15.03.2019 20:00:00 10,7 5,0 10 5 14 7 E 1025,9 20 18 0,0
15.03.2019 19:00:00 12,4 5,3 5 3 15 8 NNE 1026,3 20 60 -
15.03.2019 18:00:00 14,4 5,8 5 3 19 11 WSW 1026,5 20 60 0,0
15.03.2019 17:00:00 14,7 5,8 9 5 27 15 WNW 1026,8 20 60 0,0
15.03.2019 16:00:00 14,5 6,1 11 6 32 17 WNW 1027,1 20 60 0,0
15.03.2019 15:00:00 14,9 6,2 18 10 23 12 W 1027,5 20 38 0,0
15.03.2019 14:00:00 15,2 7,7 16 9 28 15 W 1027,9 20 1 0,0
15.03.2019 13:00:00 13,5 6,5 22 12 26 14 W 1028,6 20 0 -
15.03.2019 12:00:00 12,5 6,2 18 10 28 15 W 1029,1 20 0 0,0
15.03.2019 11:00:00 11,8 5,9 22 12 29 15 W 1029,2 20 0 0,0
15.03.2019 10:00:00 11,4 5,3 17 9 37 20 W 1029,1 20 0 0,0
15.03.2019 09:00:00 11,1 5,5 21 11 34 18 W 1028,9 20 0 0,0
15.03.2019 08:00:00 10,8 5,8 20 11 31 17 W 1029,0 20 0 0,0
15.03.2019 07:00:00 10,8 5,6 17 9 25 13 W 1028,8 20 0 -
15.03.2019 06:00:00 10,9 5,5 19 11 32 18 W 1028,9 20 0 0,0
15.03.2019 05:00:00 11,0 5,5 23 12 38 21 W 1029,0 20 0 0,0
15.03.2019 04:00:00 11,0 6,1 24 13 34 18 W 1029,2 20 0 0,0
15.03.2019 03:00:00 11,0 5,5 19 11 34 18 WSW 1030,0 20 0 0,0
15.03.2019 02:00:00 11,2 6,4 25 13 35 19 WSW 1030,2 20 0 0,0
15.03.2019 01:00:00 11,5 6,7 24 13 38 20 W 1030,6 20 0 -
15.03.2019 00:00:00 11,2 6,7 23 12 37 20 W 1031,1 20 0 0,0
14.03.2019 23:00:00 11,0 7,0 22 12 33 18 WSW 1031,2 20 0 0,0
14.03.2019 22:00:00 11,0 6,4 26 14 35 19 WSW 1030,9 20 0 0,0
14.03.2019 21:00:00 11,3 6,7 24 13 38 21 W 1030,8 20 0 0,0
14.03.2019 20:00:00 11,2 6,5 37 20 48 26 W 1030,9 20 0 0,0
14.03.2019 19:00:00 11,5 6,2 30 16 39 21 W 1030,5 20 0 -
14.03.2019 18:00:00 11,8 6,1 28 15 42 23 W 1030,4 20 0 0,0
14.03.2019 17:00:00 12,0 6,2 28 15 41 22 W 1030,5 20 12 0,0
14.03.2019 16:00:00 12,2 6,4 32 17 42 23 W 1030,7 20 0 0,0
14.03.2019 15:00:00 12,2 5,8 30 16 43 23 W 1031,1 20 1 0,0
14.03.2019 14:00:00 11,9 5,8 34 18 49 27 W 1031,8 20 0 0,0
14.03.2019 13:00:00 11,2 5,8 39 21 54 29 W 1032,3 20 0 -
14.03.2019 12:00:00 11,0 5,1 38 21 54 29 W 1032,4 20 0 0,0
14.03.2019 11:00:00 10,7 4,1 41 22 58 31 W 1032,5 20 0 0,0
14.03.2019 10:00:00 10,4 4,8 37 20 52 28 W 1032,6 20 0 0,0
14.03.2019 09:00:00 10,0 4,1 32 17 42 23 W 1032,3 20 0 0,0
14.03.2019 08:00:00 9,8 3,9 25 14 36 20 WSW 1032,0 20 0 0,0
14.03.2019 07:00:00 9,9 2,7 31 17 45 24 W 1031,9 20 0 -
14.03.2019 06:00:00 10,2 3,2 27 15 45 24 W 1032,1 20 0 0,0
14.03.2019 05:00:00 10,1 4,5 22 12 33 18 W 1032,6 20 0 0,0
14.03.2019 04:00:00 10,4 3,0 22 12 40 21 WNW 1033,0 20 0 0,0
14.03.2019 03:00:00 10,1 2,5 25 13 37 20 WNW 1033,5 20 0 0,0
14.03.2019 02:00:00 10,3 3,4 17 9 35 19 WNW 1033,8 20 0 0,0
14.03.2019 01:00:00 10,4 5,0 19 10 37 20 WNW 1033,9 20 0 -
14.03.2019 00:00:00 10,2 4,3 22 12 32 17 WNW 1034,1 20 0 0,0
13.03.2019 23:00:00 10,5 5,0 15 8 35 19 WNW 1034,4 20 0 0,0
13.03.2019 22:00:00 10,5 5,3 14 8 30 16 WNW 1034,2 20 0 0,0
13.03.2019 21:00:00 10,3 5,3 9 5 28 15 WNW 1033,9 20 0 0,0
13.03.2019 20:00:00 10,6 5,6 11 6 35 19 NW 1033,9 20 1 0,0
13.03.2019 19:00:00 10,6 5,3 22 12 38 21 WNW 1033,2 20 16 -
13.03.2019 18:00:00 11,4 5,5 19 10 36 19 WNW 1033,0 20 54 0,0
13.03.2019 17:00:00 10,7 6,4 12 7 45 25 NW 1033,1 20 40 0,2
13.03.2019 16:00:00 12,2 5,3 37 20 59 32 WNW 1032,6 20 48 0,0
13.03.2019 15:00:00 - - - - - - - - - - -
13.03.2019 14:00:00 11,0 5,5 16 8 45 24 NW 1033,2 20 18 0,0
13.03.2019 13:00:00 11,9 5,8 15 8 45 24 WNW 1033,2 20 22 -
13.03.2019 12:00:00 11,5 5,1 15 8 40 22 WNW 1032,7 20 44 0,0
13.03.2019 11:00:00 10,0 5,8 26 14 53 28 WNW 1032,0 20 32 0,2
13.03.2019 10:00:00 10,7 4,3 16 9 51 28 NW 1031,4 20 30 0,0
13.03.2019 09:00:00 9,7 5,0 37 20 51 27 WNW 1030,2 20 13 0,2

tt = temperature
td = dewpoint
ff = wind speed
fx = gusts
dd = wind direction
ppp = reduced air pressure
vv = visibility
sd = sunshine duration
rr = precipitation

Next stations